Regional Weather Roundup
Issued by NWS Goodland, KS

Home | Current Version | Previous Version | Graphics & Text | Print | Product List | Glossary On
Versions: 1 2 3 4 5 6 7 8 9 10 11 12 13 14 15 16 17 18 19 20 21 22 23 24 25 26 27 28 29 30 31 32 33 34 35 36 37 38 39 40 41 42 43 44 45 46 47 48 49 50
000
ASUS43 KGLD 221908
RWRGLD

GOODLAND FORECAST AREA HOURLY WEATHER ROUNDUP
NATIONAL WEATHER SERVICE GOODLAND KS
1200 PM MST WED FEB 22 2017

...OFFICIAL OBSERVATIONS...

CITY           SKY/WX    TMP DP  RH WIND       PRES   REMARKS
GOODLAND KS    SUNNY     62  21  20 N9        29.84F
HILL CITY KS   SUNNY     72  31  22 N10       29.78F
IMPERIAL NEB   SUNNY     62  20  19 NW9       29.81F
MCCOOK NEB     SUNNY     66  27  23 NW12      29.79F
AKRON CO       SUNNY     57  18  21 NW12G23   29.84F
BURLINGTON CO  SUNNY     62  23  22 N13G18    29.86F
LIMON CO       SUNNY     56  22  26 MISG      29.85F
$$

...UNOFFICIAL OBSERVATIONS...

CITY           SKY/WX    TMP DP  RH WIND       PRES   REMARKS
LENORA KS        N/A     69  32  25 W7          N/A
NORTON KS      SUNNY     70  16  12 W12G17    29.77
SHARON SPRINGS   N/A     66  27  23 CALM        N/A
TRIBUNE KS     SUNNY     66  30  26 N9        29.86
TRENTON NEB      N/A     64  32  30 NW8         N/A
KIT CARSON CO    N/A     58  26  29 MISG        N/A
YUMA CO        FAIR      57  19  23 NW6       29.84F
$$



USA.gov is the U.S. government's official web portal to all federal, state and local government web resources and services.